Temperature
25 27 27 26 26 26 26 26 25 24 22 22 22 22 21 19 19 19 19 18 18 17 16 15 14 14 13 13 13 12 12 12 12 12 13 13 13 13 13 13 13 13 14 14
26 26 26 25 25 25 25 25 24 22 21 22 22 22 21 20 19 19 19 18 18 17 17 15 15 14 13 13 13 12 12 12 12 12 12 12 12 12 12 13 13 13 13 13
27 26 25 25 25 25 25 25 24 23 21 21 22 22 21 21 19 18 18 17 17 16 16 15 15 14 13 13 12 12 12 12 12 12 12 12 12 12 12 12 13 13 13 13
25 24 25 25 25 25 24 23 23 22 22 23 22 23 23 22 20 19 18 18 17 16 16 15 14 14 13 13 12 12 12 12 12 12 12 12 12 12 12 12 12 12 13 13
24 24 25 25 24 24 23 22 22 22 22 23 22 22 24 21 21 21 19 18 17 16 15 15 14 14 13 13 12 12 12 12 11 11 11 12 11 12 12 12 12 12 12 13
23 23 24 24 22 22 22 22 22 22 23 23 22 22 23 23 21 21 19 18 17 16 15 15 14 13 13 13 12 12 12 11 11 11 11 11 11 11 11 11 12 12 12 12
24 24 23 23 23 22 23 23 23 23 23 23 21 21 22 22 21 20 19 18 17 16 16 15 14 14 13 13 12 12 12 11 11 11 11 11 11 11 11 11 11 12 12 12
24 24 23 23 24 24 23 24 23 23 23 23 21 22 23 21 19 18 18 17 17 16 16 15 14 14 13 13 12 12 12 11 11 11 11 11 11 11 11 11 11 11 12 12
26 24 22 22 22 23 23 23 23 23 22 22 23 23 22 20 20 19 18 17 17 16 16 15 14 14 13 13 12 12 12 12 11 11 11 11 11 11 11 11 11 11 11 11
26 24 22 21 22 21 23 22 22 23 22 23 23 23 23 22 21 20 19 18 17 16 16 15 14 14 13 13 12 12 12 11 11 11 11 11 10 10 10 10 11 11 11 11
26 25 22 22 22 23 22 22 22 22 22 22 23 23 23 22 21 21 20 18 17 17 16 15 15 14 13 13 13 12 12 12 11 11 11 10 10 10 10 10 10 11 11 11
23 25 24 23 21 21 22 22 22 22 22 21 22 23 22 21 20 20 19 18 17 16 16 15 15 14 14 13 13 12 12 12 11 11 11 10 10 10 10 10 10 10 10 10
23 24 24 22 22 21 21 21 21 21 22 22 22 23 22 21 20 19 19 18 17 16 16 15 15 14 14 13 13 13 12 12 11 11 11 11 11 10 10 10 10 10 10 10
22 24 24 24 24 23 22 20 20 21 22 22 22 22 23 22 21 20 19 18 17 17 16 16 15 15 14 14 13 13 12 12 11 11 11 10 10 10 10 10 10 10 10 10
23 24 23 23 22 22 22 21 20 21 22 22 23 22 22 22 21 20 19 18 17 17 16 16 15 15 15 14 14 13 12 12 11 11 11 10 10 10 10 10 10 10 10 10
23 24 23 22 22 22 22 22 21 20 21 21 21 22 23 21 20 20 19 18 18 17 17 16 16 15 15 15 14 13 13 12 12 11 11 10 10 10 10 10 10 10 10 10
23 23 23 23 22 22 23 23 22 22 22 22 22 23 23 22 21 20 20 19 18 18 17 17 16 16 15 15 14 14 13 12 12 11 11 11 10 10 10 10 10 10 10 10
23 23 23 23 23 22 24 23 23 22 22 22 22 22 22 21 20 19 19 19 19 18 17 17 16 16 15 15 14 14 13 13 12 12 11 11 10 10 10 10 10 10 10 10
22 23 23 23 23 23 23 22 22 22 23 23 22 22 21 20 20 21 19 19 18 18 17 17 16 16 15 15 14 14 13 13 12 12 11 11 11 10 10 10 10 10 10 10
20 22 23 22 23 23 24 23 21 23 23 23 22 22 21 20 23 23 19 19 18 18 17 17 16 16 15 15 14 14 14 13 13 12 12 11 11 11 11 10 10 10 10 10
21 22 22 22 23 24 23 21 21 23 24 22 21 21 21 21 22 20 19 18 18 18 17 17 16 16 15 15 14 14 14 14 13 13 12 12 11 11 11 11 11 10 10 10
23 22 22 22 22 23 20 21 23 23 21 21 21 20 20 20 19 18 18 18 18 18 17 17 16 16 15 15 15 14 14 14 13 13 13 12 12 12 11 11 11 11 11 10
23 23 23 24 23 20 18 20 18 18 19 20 19 19 19 19 19 18 18 18 18 18 17 17 16 16 15 15 15 15 14 14 14 14 13 13 12 12 12 12 11 11 11 11
22 20 21 22 22 19 17 16 16 16 17 17 18 18 18 18 18 18 18 18 18 18 17 17 17 16 16 15 15 15 15 14 14 14 14 13 13 12 12 12 12 11 11 11
22 20 22 22 21 18 16 16 15 16 16 17 17 17 18 17 17 18 18 18 18 17 17 17 17 16 16 16 15 15 15 15 14 14 14 14 13 13 13 13 13 12 12 12
21 21 22 24 22 21 19 15 15 15 16 16 16 17 17 17 17 17 17 17 17 17 17 17 17 16 16 16 15 15 15 15 15 14 14 14 14 14 13 13 13 13 13 13
Wind_Speed
7 8 7 6 4 3 3 5 4 0 1 5 8 7 6 7 7 7 5 4 4 5 6 7 8 9 9 10 11 11 11 11 9 8 8 7 7 7 6 6 6 7 7 8
8 7 3 4 4 3 2 3 2 2 1 4 5 8 6 7 8 7 6 5 5 6 7 7 8 9 9 10 11 11 11 11 10 8 8 6 7 7 6 6 6 7 7 6
9 6 6 6 6 3 1 3 2 1 2 3 5 6 7 6 7 7 7 6 5 5 7 8 8 9 9 10 10 10 11 10 10 10 7 7 6 5 5 6 6 6 6 6
6 5 7 6 4 1 1 1 1 3 4 2 3 4 2 4 6 8 8 6 5 5 6 7 8 9 9 9 10 10 11 11 10 10 8 9 7 7 7 7 6 6 6 6
6 6 5 4 3 0 3 3 2 3 4 5 3 5 1 2 4 4 5 5 4 4 5 6 7 8 8 8 8 9 10 10 10 10 9 9 8 7 7 7 7 7 5 6
7 4 3 3 4 3 6 4 3 4 5 4 1 4 2 0 2 1 1 2 3 3 4 5 5 6 7 7 7 8 9 9 9 10 9 9 9 9 9 8 7 6 5 5
7 5 4 3 5 4 4 4 4 4 3 1 1 4 3 2 2 3 3 2 2 3 4 4 6 6 7 7 7 8 8 9 9 10 9 10 10 9 8 8 7 7 6 6
8 6 4 2 1 2 1 4 4 4 3 1 3 4 1 1 2 3 4 3 3 3 4 4 5 6 6 7 7 7 8 8 9 9 9 9 9 7 7 8 7 7 6 6
5 5 5 3 2 1 2 1 3 3 3 4 2 2 2 2 4 5 5 5 5 4 4 4 5 5 5 6 6 7 7 8 8 8 9 9 10 9 9 9 8 7 7 7
3 5 6 5 4 4 3 2 3 3 3 2 1 2 2 1 2 3 4 5 5 4 4 4 4 5 5 5 5 6 6 7 7 7 8 7 9 9 9 8 9 9 9 9
2 4 6 6 4 3 4 3 2 2 3 4 2 1 2 2 2 3 3 4 4 5 4 4 4 4 4 4 4 5 5 6 6 7 8 8 8 8 8 8 9 9 9 9
1 3 4 4 2 1 2 2 3 3 2 3 4 1 3 2 4 5 5 4 4 4 4 4 4 4 4 4 4 4 5 5 5 6 7 8 8 8 9 9 9 9 9 9
4 4 5 5 5 5 4 3 4 3 2 3 3 1 3 3 5 6 6 6 6 5 5 5 4 4 4 4 4 4 4 4 4 5 6 7 8 8 9 9 9 9 9 9
3 4 5 2 2 5 5 6 7 6 4 4 5 6 6 6 6 5 5 6 6 6 6 5 5 4 4 4 3 3 3 3 3 4 6 7 7 8 8 8 8 8 9 9
4 4 3 1 2 3 4 7 10 10 7 5 5 8 10 8 5 4 4 5 6 7 7 6 6 5 4 3 3 3 2 2 3 4 5 6 7 7 7 8 8 8 8 8
4 4 5 5 4 5 6 8 10 10 8 9 10 9 5 4 4 4 5 6 7 7 7 6 6 5 4 4 3 2 2 2 2 3 4 5 6 6 7 7 8 8 8 8
6 6 5 5 4 4 7 8 10 6 8 7 6 3 4 5 5 5 4 5 7 7 6 6 6 5 4 3 2 2 2 2 2 3 3 4 5 5 6 7 7 7 7 7
6 6 4 3 5 6 3 3 5 6 6 8 9 8 7 7 6 6 6 6 6 6 6 6 6 5 4 3 2 2 2 3 3 3 3 3 4 5 5 6 7 7 7 6
3 5 4 4 5 4 3 5 5 5 3 3 6 5 4 3 5 3 2 5 6 5 5 5 5 4 4 3 3 3 3 3 3 3 3 3 3 4 5 5 6 6 6 6
2 4 5 5 5 4 4 6 4 4 4 2 3 3 2 3 2 2 2 1 4 4 5 5 5 5 5 4 4 4 4 4 4 3 3 3 3 4 4 5 5 5 5 5
7 6 8 8 6 3 4 5 5 5 2 3 1 2 2 3 4 3 2 1 2 4 5 5 6 6 5 4 5 6 5 4 4 4 4 4 4 4 4 5 4 5 5 5
9 7 7 7 7 5 6 7 6 1 3 0 2 2 3 4 4 3 3 2 2 3 4 6 6 6 6 6 6 7 6 5 4 5 5 6 5 5 4 5 5 5 5 5
7 6 4 6 2 4 4 3 1 2 3 2 2 2 3 3 3 2 2 2 2 3 4 5 6 6 6 7 7 8 6 5 6 6 7 7 7 6 6 6 6 5 5 5
7 4 5 5 5 4 4 3 2 3 4 3 3 3 2 2 2 2 2 1 1 2 3 4 5 6 7 7 7 8 7 6 7 8 8 8 8 7 7 5 6 6 5 5
6 8 7 7 5 6 6 4 2 1 1 1 1 1 1 1 2 2 2 2 2 2 2 4 5 6 7 6 7 7 7 8 9 10 9 9 8 8 8 7 7 7 7 5
8 9 9 8 9 8 7 6 3 3 3 2 3 4 5 4 4 4 4 4 4 3 2 3 4 6 7 7 7 7 7 8 10 10 9 8 8 7 8 8 8 10 11 8
Wind_Direction
171 192 198 196 217 294 289 276 281 84 148 236 250 253 219 204 216 231 245 271 309 336 346 357 353 352 350 352 350 350 348 349 347 343 337 334 331 324 321 314 316 305 296 287
172 188 148 129 152 180 228 259 257 148 146 256 266 262 237 219 227 242 261 280 305 326 336 351 349 353 352 353 352 350 350 349 347 344 333 323 320 317 321 318 318 317 310 297
188 135 139 152 156 176 191 282 271 239 180 213 277 256 217 214 226 237 249 268 295 317 330 341 345 348 349 353 352 349 349 347 349 345 337 331 330 323 330 330 327 324 321 308
117 123 150 152 136 244 183 87 186 208 247 265 277 300 177 209 233 240 246 256 280 305 321 332 338 343 346 350 348 348 351 351 351 347 345 344 339 335 330 328 326 327 329 326
121 135 153 143 95 352 95 115 173 233 262 271 239 280 187 178 260 254 246 255 273 294 316 328 338 341 344 347 346 347 351 355 355 351 349 343 344 336 332 331 333 332 336 334
106 101 68 99 93 96 138 154 160 211 244 258 247 278 300 241 323 328 245 259 270 284 306 320 335 338 343 346 347 348 353 358 358 353 351 350 347 343 341 342 339 338 336 335
129 117 103 135 145 146 207 249 245 223 226 256 101 268 290 16 291 276 284 294 289 282 299 318 331 338 341 343 345 345 352 355 358 356 355 355 350 345 346 345 342 340 338 338
171 154 126 137 268 193 199 279 298 303 312 320 201 261 339 65 255 250 254 263 270 273 290 308 322 328 332 336 339 342 346 350 354 353 355 357 355 350 350 348 344 341 339 336
182 137 112 81 80 237 190 221 336 292 287 275 230 265 261 179 232 236 243 249 256 270 281 298 313 321 328 332 337 340 341 347 353 352 352 356 357 356 353 352 351 348 344 340
154 144 149 144 146 59 8 144 220 263 288 286 265 258 327 278 274 248 248 249 252 258 270 289 304 309 318 327 331 336 341 345 351 352 354 355 354 355 354 353 355 352 350 351
190 171 157 181 213 192 168 188 229 257 286 298 320 82 65 313 303 284 271 256 250 253 265 283 298 303 307 314 324 333 341 349 353 353 354 353 355 354 354 356 355 351 351 353
124 216 176 162 112 4 247 239 233 267 249 267 290 317 117 256 276 273 270 255 242 246 257 270 284 290 295 306 321 333 342 351 355 352 353 355 354 356 359 359 355 353 355 356
159 200 180 170 179 189 205 200 219 251 258 248 269 10 127 266 276 265 257 252 240 237 247 258 267 278 286 295 305 320 333 344 352 353 353 356 360 1 0 359 357 355 357 357
218 217 245 262 109 163 187 191 202 219 249 258 253 292 313 315 303 278 251 243 237 236 241 250 259 269 275 279 287 301 320 334 342 350 353 358 1 360 358 1 358 357 358 359
228 217 197 155 126 191 211 202 203 223 251 268 289 293 303 319 312 288 256 235 230 233 237 242 251 265 270 270 272 277 293 312 329 342 352 358 358 359 358 359 359 358 359 1
212 201 185 188 191 219 237 228 218 230 246 256 276 287 290 306 287 271 248 231 232 233 235 239 245 252 262 264 268 264 267 286 310 332 349 355 351 359 359 359 359 1 1 3
189 199 207 201 180 226 240 219 207 214 220 236 260 303 319 296 289 282 265 239 239 237 233 235 239 240 251 264 271 259 264 273 287 316 338 345 351 356 360 1 2 0 2 4
192 197 214 212 201 227 111 111 191 217 236 234 257 284 295 291 290 279 264 252 243 233 228 227 230 229 236 236 230 233 234 254 278 302 318 331 336 345 352 356 358 356 359 0
232 201 211 223 223 228 182 181 187 204 199 215 246 276 297 292 266 237 225 238 243 234 225 222 224 224 228 228 227 227 235 249 264 280 296 307 320 331 337 344 348 352 351 352
174 220 224 219 230 221 152 138 170 211 195 146 231 281 285 259 283 58 60 231 230 223 218 215 213 220 224 221 220 236 251 257 260 264 275 286 301 310 317 329 334 340 339 340
188 203 220 224 232 229 129 145 173 207 137 110 229 275 244 259 333 11 355 283 226 214 210 210 213 220 226 221 221 240 254 263 262 254 261 268 274 285 298 309 313 316 325 329
198 194 203 207 218 209 140 168 197 59 59 313 270 277 270 283 309 306 291 273 237 217 208 212 218 223 223 223 230 245 255 261 251 245 251 258 265 272 279 285 295 303 308 311
214 216 208 211 208 87 164 201 333 312 279 290 291 295 283 278 291 308 301 280 246 231 219 217 226 233 229 225 234 252 256 248 242 244 250 256 260 261 265 274 281 288 290 299
195 194 209 219 216 187 179 194 246 268 263 282 284 283 274 278 313 327 326 319 287 250 235 229 232 239 241 237 236 250 258 248 246 250 254 254 257 259 259 260 268 276 284 290
187 182 206 222 185 174 196 196 208 219 220 200 147 93 39 16 18 8 6 3 347 315 260 241 245 253 259 257 250 253 255 251 253 256 256 256 255 258 262 258 255 263 265 267
192 194 202 219 192 189 179 163 167 162 139 121 122 96 69 53 42 36 34 23 11 359 334 290 274 273 275 276 273 270 262 256 259 265 266 262 258 253 254 260 256 228 237 233
Height
1535 1535 1536 1537 1538 1539 1540 1543 1546 1550 1554 1554 1552 1553 1557 1560 1562 1562 1562 1563 1563 1563 1562 1560 1558 1555 1552 1549 1546 1543 1539 1536 1532 1529 1526 1523 1521 1519 1517 1515 1513 1512 1511 1511
1534 1536 1538 1539 1541 1541 1542 1545 1548 1553 1556 1554 1552 1552 1554 1558 1559 1560 1561 1561 1561 1561 1560 1559 1557 1555 1552 1549 1545 1542 1538 1535 1531 1528 1525 1522 1519 1517 1514 1512 1511 1509 1508 1507
1529 1537 1540 1540 1542 1543 1545 1546 1548 1551 1555 1554 1554 1549 1551 1554 1557 1559 1560 1560 1560 1560 1559 1558 1556 1554 1551 1548 1545 1541 1538 1534 1530 1527 1524 1521 1518 1515 1513 1511 1508 1507 1506 1505
1535 1540 1541 1541 1543 1543 1548 1549 1550 1553 1552 1549 1554 1551 1545 1548 1553 1555 1557 1558 1558 1558 1558 1557 1555 1553 1550 1548 1544 1541 1537 1534 1530 1526 1523 1520 1517 1514 1511 1509 1507 1505 1504 1502
1539 1541 1541 1543 1546 1546 1549 1551 1551 1552 1551 1551 1551 1551 1542 1548 1549 1550 1553 1555 1556 1557 1556 1555 1554 1552 1549 1547 1543 1540 1537 1533 1529 1526 1522 1519 1516 1513 1510 1508 1505 1504 1502 1500
1541 1544 1544 1545 1550 1550 1551 1552 1552 1551 1549 1553 1551 1553 1547 1543 1546 1548 1551 1553 1554 1555 1555 1554 1553 1551 1549 1546 1543 1540 1537 1533 1529 1526 1522 1519 1516 1512 1510 1507 1504 1503 1501 1499
1543 1544 1547 1548 1548 1551 1549 1549 1551 1552 1552 1550 1553 1554 1546 1544 1547 1549 1551 1552 1553 1553 1553 1552 1551 1550 1548 1545 1542 1540 1536 1533 1529 1526 1522 1519 1515 1512 1509 1506 1504 1502 1500 1498
1540 1546 1546 1547 1546 1546 1548 1547 1554 1556 1553 1548 1552 1550 1542 1545 1548 1550 1551 1551 1552 1552 1552 1551 1550 1549 1547 1544 1542 1539 1536 1533 1529 1526 1523 1519 1515 1512 1509 1506 1504 1502 1499 1497
1532 1545 1549 1550 1550 1547 1548 1547 1549 1549 1551 1552 1544 1543 1541 1545 1546 1548 1549 1550 1550 1550 1550 1550 1549 1548 1546 1544 1541 1538 1536 1533 1530 1526 1523 1519 1516 1512 1509 1507 1504 1502 1499 1497
1527 1542 1547 1551 1550 1552 1548 1549 1550 1550 1555 1550 1547 1545 1542 1540 1542 1544 1546 1547 1548 1548 1549 1548 1547 1546 1545 1543 1540 1538 1535 1533 1530 1526 1523 1519 1516 1513 1510 1507 1504 1501 1499 1496
1529 1536 1548 1548 1547 1546 1551 1552 1551 1551 1552 1552 1550 1545 1538 1540 1541 1542 1543 1545 1546 1546 1547 1547 1546 1545 1543 1542 1540 1537 1535 1532 1529 1526 1523 1520 1517 1514 1511 1508 1504 1502 1499 1496
1533 1531 1540 1545 1549 1550 1548 1548 1549 1551 1551 1553 1552 1546 1538 1540 1542 1542 1542 1543 1544 1545 1545 1545 1544 1543 1542 1541 1539 1537 1535 1532 1529 1526 1523 1520 1517 1515 1512 1508 1505 1502 1499 1497
1534 1534 1542 1548 1552 1551 1549 1550 1550 1550 1549 1550 1551 1544 1538 1539 1540 1540 1540 1541 1542 1542 1543 1543 1542 1542 1541 1539 1538 1536 1534 1531 1529 1526 1523 1521 1518 1515 1512 1509 1506 1503 1500 1497
1535 1532 1536 1541 1538 1540 1545 1550 1551 1549 1546 1546 1546 1540 1534 1535 1536 1537 1538 1538 1539 1540 1540 1540 1540 1540 1539 1538 1536 1535 1533 1531 1528 1526 1523 1521 1518 1515 1512 1510 1506 1504 1501 1498
1534 1532 1534 1537 1540 1540 1541 1544 1548 1547 1542 1543 1538 1538 1534 1533 1534 1535 1535 1536 1537 1537 1538 1538 1538 1538 1537 1536 1535 1533 1532 1530 1528 1526 1524 1521 1518 1515 1513 1510 1507 1504 1501 1499
1533 1533 1535 1539 1540 1541 1541 1540 1543 1545 1543 1541 1539 1537 1531 1532 1533 1533 1533 1533 1534 1535 1535 1536 1536 1536 1535 1535 1534 1532 1531 1529 1527 1526 1524 1521 1518 1516 1513 1510 1507 1505 1502 1500
1531 1532 1535 1535 1538 1540 1538 1531 1536 1537 1536 1536 1535 1531 1530 1531 1531 1531 1531 1531 1532 1532 1533 1533 1534 1534 1533 1533 1532 1531 1530 1528 1527 1525 1523 1521 1519 1516 1513 1511 1508 1505 1503 1500
1530 1531 1532 1533 1538 1543 1529 1528 1529 1531 1531 1531 1530 1529 1530 1530 1529 1529 1529 1529 1529 1530 1530 1531 1531 1531 1532 1531 1530 1529 1528 1527 1526 1525 1523 1520 1518 1516 1514 1511 1508 1506 1504 1501
1532 1531 1532 1532 1534 1530 1527 1527 1529 1530 1528 1527 1528 1528 1528 1528 1527 1526 1526 1526 1527 1527 1528 1529 1529 1530 1530 1530 1529 1528 1528 1526 1525 1524 1522 1520 1518 1516 1514 1511 1509 1506 1504 1501
1534 1531 1531 1534 1535 1533 1524 1524 1527 1529 1527 1526 1526 1526 1527 1527 1522 1523 1525 1524 1525 1525 1526 1526 1527 1527 1528 1528 1527 1527 1527 1526 1524 1523 1521 1519 1517 1515 1513 1511 1509 1506 1504 1501
1531 1531 1531 1531 1530 1522 1521 1525 1528 1530 1525 1525 1525 1525 1525 1525 1523 1525 1524 1523 1523 1524 1524 1524 1525 1525 1526 1526 1525 1525 1525 1524 1523 1521 1519 1518 1516 1515 1513 1511 1508 1506 1504 1501
1520 1524 1526 1526 1529 1524 1521 1523 1522 1521 1522 1523 1524 1524 1524 1524 1523 1523 1522 1522 1522 1522 1522 1522 1523 1523 1523 1523 1523 1523 1523 1522 1521 1519 1518 1516 1515 1514 1512 1510 1508 1506 1504 1502
1516 1515 1514 1516 1518 1518 1520 1520 1521 1521 1522 1522 1523 1523 1522 1522 1522 1521 1521 1520 1520 1520 1520 1520 1521 1521 1521 1521 1521 1521 1521 1519 1518 1517 1516 1515 1514 1512 1510 1509 1507 1505 1503 1502
1512 1517 1515 1514 1514 1517 1519 1519 1519 1519 1520 1520 1520 1520 1520 1520 1520 1519 1519 1519 1518 1518 1518 1518 1518 1519 1519 1519 1518 1518 1518 1517 1516 1515 1514 1513 1512 1510 1509 1507 1505 1504 1502 1501
1507 1513 1512 1510 1512 1516 1517 1517 1517 1517 1518 1518 1518 1518 1518 1518 1518 1518 1517 1517 1516 1516 1516 1516 1516 1516 1516 1516 1516 1515 1515 1514 1513 1512 1511 1510 1509 1507 1506 1504 1503 1501 1500 1498
1505 1506 1506 1503 1505 1508 1511 1513 1514 1515 1516 1517 1517 1517 1517 1517 1516 1516 1516 1515 1514 1514 1514 1514 1513 1513 1513 1513 1513 1512 1511 1510 1510 1509 1509 1507 1506 1504 1503 1501 1500 1498 1496 1495